Location: Gleizolles
(44.4833°N, 6.7667°E)
Time: 00:38:43
(UTC+00:00)

S-56A Canister/Altair - Pass Details

Date: 27 June 2024
Orbit: 638 x 2488 km, 38.9° (Epoch: 24 July)

Event Time Altitude Azimuth Distance (km) Brightness Sun altitude
Rises 22:38:54 0° 274° (W) 4,450 11.7 -21.0°
Reaches altitude 10° 22:41:33 10° 270° (W) 3,694 11.1 -21.1°
Maximum altitude 22:51:18 58° 195° (SSW) 2,244 9.5 -21.5°
Drops below altitude 10° 23:04:53 10° 122° (ESE) 5,025 11.3 -21.9°
Sets 23:09:09 0° 119° (ESE) 6,123 11.8 -22.0°
